Time,TemperatureF,DewpointF,PressureIn,WindDirection,WindDirectionDegrees,WindSpeedMPH,WindSpeedGustMPH,Humidity,HourlyPrecipIn,Conditions,Clouds,dailyrainin,SoftwareType,DateUTC
2013-04-05 00:00:00,41.7,10.1,29.97,NW,315,5.8,0.0,27,0.00,CLR,,0.00,WeatherDisplay:10.37,2013-04-05 04:00:00,
2013-04-05 00:02:00,41.7,10.1,29.96,South,180,3.5,3.5,27,0.00,CLR,,0.00,WeatherDisplay:10.37,2013-04-05 04:02:00,
2013-04-05 00:05:00,41.7,11.0,29.97,SSW,205,2.0,6.0,28,0.00,CLR,,0.00,WeatherDisplay:10.37,2013-04-05 04:05:00,
2013-04-05 00:10:00,41.7,11.0,29.96,South,184,2.0,6.0,28,0.00,CLR,,0.00,WeatherDisplay:10.37,2013-04-05 04:10:00,
2013-04-05 00:15:00,41.7,12.5,29.91,South,180,2.0,5.0,30,0.00,CLR,,0.00,WeatherDisplay:10.37,2013-04-05 04:15:00,
2013-04-05 00:20:00,41.9,10.3,29.96,South,187,1.0,7.0,27,0.00,CLR,,0.00,WeatherDisplay:10.37,2013-04-05 04:20:00,
2013-04-05 00:25:00,41.9,10.3,29.96,SSW,204,1.0,7.0,27,0.00,CLR,,0.00,WeatherDisplay:10.37,2013-04-05 04:25:00,
2013-04-05 00:30:00,41.9,11.1,29.95,SSW,199,1.0,6.0,28,0.00,CLR,,0.00,WeatherDisplay:10.37,2013-04-05 04:30:00,
2013-04-05 00:35:00,42.0,10.4,29.95,SSW,192,0.0,5.0,27,0.00,CLR,,0.00,WeatherDisplay:10.37,2013-04-05 04:35:00,
2013-04-05 00:40:00,42.1,10.5,29.95,SSW,193,1.0,5.0,27,0.00,CLR,,0.00,WeatherDisplay:10.37,2013-04-05 04:40:00,
2013-04-05 00:45:00,42.1,10.5,29.96,South,175,1.0,6.0,27,0.00,CLR,,0.00,WeatherDisplay:10.37,2013-04-05 04:45:00,
2013-04-05 00:51:00,42.1,10.5,29.96,South,180,5.8,5.8,27,0.00,CLR,,0.00,WeatherDisplay:10.37,2013-04-05 04:51:00,
2013-04-05 00:56:00,42.3,10.6,29.95,SSW,202,5.8,5.8,27,0.00,CLR,,0.00,WeatherDisplay:10.37,2013-04-05 04:56:00,
2013-04-05 01:01:00,42.3,9.8,29.95,SW,225,5.8,5.8,26,0.00,CLR,,0.00,WeatherDisplay:10.37,2013-04-05 05:01:00,
2013-04-05 01:06:00,42.3,9.8,29.96,South,180,4.6,4.6,26,0.00,CLR,,0.00,WeatherDisplay:10.37,2013-04-05 05:06:00,
2013-04-05 01:11:00,42.4,9.9,29.95,SW,225,5.8,5.8,26,0.00,CLR,,0.00,WeatherDisplay:10.37,2013-04-05 05:11:00,
2013-04-05 01:16:00,42.3,9.8,29.95,NE,45,3.5,0.0,26,0.00,CLR,,0.00,WeatherDisplay:10.37,2013-04-05 05:16:00,
2013-04-05 01:21:00,42.4,9.9,29.95,SW,225,2.3,0.0,26,0.00,CLR,,0.00,WeatherDisplay:10.37,2013-04-05 05:21:00,
2013-04-05 01:26:00,42.3,9.8,29.95,South,180,8.1,8.1,26,0.00,CLR,,0.00,WeatherDisplay:10.37,2013-04-05 05:26:00,
2013-04-05 01:32:00,42.3,9.8,29.95,South,180,3.5,3.5,26,0.00,CLR,,0.00,WeatherDisplay:10.37,2013-04-05 05:32:00,
2013-04-05 01:37:00,42.4,9.9,29.94,SE,135,5.8,0.0,26,0.00,CLR,,0.00,WeatherDisplay:10.37,2013-04-05 05:37:00,
2013-04-05 01:42:00,42.4,9.9,29.93,SW,225,3.5,0.0,26,0.00,CLR,,0.00,WeatherDisplay:10.37,2013-04-05 05:42:00,
2013-04-05 01:47:00,42.3,9.8,29.93,South,180,2.3,0.0,26,0.00,CLR,,0.00,WeatherDisplay:10.37,2013-04-05 05:47:00,
2013-04-05 01:52:00,42.3,9.8,29.93,NW,315,4.6,4.6,26,0.00,CLR,,0.00,WeatherDisplay:10.37,2013-04-05 05:52:00,
2013-04-05 01:57:00,42.3,10.6,29.93,SSW,202,4.6,4.6,27,0.00,CLR,,0.00,WeatherDisplay:10.37,2013-04-05 05:57:00,
2013-04-05 02:03:00,42.4,9.9,29.92,South,180,3.5,3.5,26,0.00,CLR,,0.00,WeatherDisplay:10.37,2013-04-05 06:03:00,
2013-04-05 02:08:00,42.4,10.8,29.92,SW,225,1.2,1.2,27,0.00,CLR,,0.00,WeatherDisplay:10.37,2013-04-05 06:08:00,
2013-04-05 02:13:00,42.4,10.8,29.91,SW,225,5.8,5.8,27,0.00,CLR,,0.00,WeatherDisplay:10.37,2013-04-05 06:13:00,
2013-04-05 02:18:00,42.4,11.6,29.91,South,180,4.6,4.6,28,0.00,CLR,,0.00,WeatherDisplay:10.37,2013-04-05 06:18:00,
2013-04-05 02:23:00,42.3,13.0,29.91,South,180,3.5,3.5,30,0.00,CLR,,0.00,WeatherDisplay:10.37,2013-04-05 06:23:00,
2013-04-05 02:28:00,42.3,13.7,29.91,South,180,3.5,3.5,31,0.00,CLR,,0.00,WeatherDisplay:10.37,2013-04-05 06:28:00,
2013-04-05 02:33:00,42.1,14.3,29.91,South,180,3.5,3.5,32,0.00,CLR,,0.00,WeatherDisplay:10.37,2013-04-05 06:33:00,
2013-04-05 02:38:00,41.9,14.8,29.90,South,180,2.3,0.0,33,0.00,CLR,,0.00,WeatherDisplay:10.37,2013-04-05 06:38:00,
2013-04-05 02:43:00,41.7,16.0,29.90,West,270,3.5,3.5,35,0.00,CLR,,0.00,WeatherDisplay:10.37,2013-04-05 06:43:00,
2013-04-05 02:49:00,41.5,16.5,29.90,South,180,4.6,0.0,36,0.00,CLR,,0.00,WeatherDisplay:10.37,2013-04-05 06:49:00,
2013-04-05 02:54:00,41.4,17.6,29.90,SSW,202,3.5,3.5,38,0.00,CLR,,0.00,WeatherDisplay:10.37,2013-04-05 06:54:00,
2013-04-05 03:00:00,41.2,18.1,29.90,SE,135,2.3,2.3,39,0.00,CLR,,0.00,WeatherDisplay:10.37,2013-04-05 07:00:00,
2013-04-05 03:05:00,41.2,19.2,29.90,South,180,3.5,3.5,41,0.01,RA,,0.01,WeatherDisplay:10.37,2013-04-05 07:05:00,
2013-04-05 03:10:00,41.0,19.6,29.89,South,180,3.5,3.5,42,0.01,RA,,0.01,WeatherDisplay:10.37,2013-04-05 07:10:00,
2013-04-05 03:15:00,40.8,20.0,29.89,SSW,194,0.0,7.0,43,0.01,CLR,,0.01,WeatherDisplay:10.37,2013-04-05 07:15:00,
2013-04-05 03:20:00,40.6,20.4,29.89,South,177,0.0,2.0,44,0.01,CLR,,0.01,WeatherDisplay:10.37,2013-04-05 07:20:00,
2013-04-05 03:25:00,40.5,20.8,29.89,South,176,0.0,5.0,45,0.01,CLR,,0.01,WeatherDisplay:10.37,2013-04-05 07:25:00,
2013-04-05 03:30:00,40.3,21.1,29.89,SW,214,0.0,7.0,46,0.01,CLR,,0.01,WeatherDisplay:10.37,2013-04-05 07:30:00,
2013-04-05 03:35:00,40.3,21.1,29.88,WSW,237,1.0,3.0,46,0.01,CLR,,0.01,WeatherDisplay:10.37,2013-04-05 07:35:00,
2013-04-05 03:41:00,39.9,21.3,29.88,NW,315,2.2,2.2,47,0.02,RA,,0.02,WeatherDisplay:10.37,2013-04-05 07:41:00,
2013-04-05 03:46:00,39.7,21.1,29.87,South,180,1.2,0.0,47,0.02,RA,,0.02,WeatherDisplay:10.37,2013-04-05 07:46:00,
2013-04-05 03:51:00,39.7,21.6,29.86,SE,135,1.2,0.0,48,0.02,,,0.02,WeatherDisplay:10.37,2013-04-05 07:51:00,
2013-04-05 03:56:00,39.6,21.5,29.86,South,180,2.3,0.0,48,0.02,CLR,,0.04,WeatherDisplay:10.37,2013-04-05 07:56:00,
2013-04-05 04:02:00,39.4,22.3,29.86,South,180,2.3,0.0,50,0.02,RA,,0.04,WeatherDisplay:10.37,2013-04-05 08:02:00,
2013-04-05 04:07:00,39.4,22.3,29.86,South,180,1.6,0.0,50,0.02,,,0.04,WeatherDisplay:10.37,2013-04-05 08:07:00,
2013-04-05 04:12:00,39.2,22.1,29.86,South,180,0.0,0.0,50,0.02,CLR,,0.04,WeatherDisplay:10.37,2013-04-05 08:12:00,
2013-04-05 04:17:00,39.2,22.1,29.85,SW,225,0.0,0.0,50,0.02,CLR,,0.04,WeatherDisplay:10.37,2013-04-05 08:17:00,
2013-04-05 04:22:00,39.2,22.6,29.85,South,180,1.2,0.0,51,0.02,CLR,,0.04,WeatherDisplay:10.37,2013-04-05 08:22:00,
2013-04-05 04:27:00,39.0,22.4,29.84,South,180,1.2,0.0,51,0.02,CLR,,0.04,WeatherDisplay:10.37,2013-04-05 08:27:00,
2013-04-05 04:33:00,38.8,22.2,29.83,East,90,0.0,0.0,51,0.04,RA,,0.05,WeatherDisplay:10.37,2013-04-05 08:33:00,
2013-04-05 04:38:00,38.8,22.2,29.83,East,90,0.0,0.0,51,0.04,RA,,0.05,WeatherDisplay:10.37,2013-04-05 08:38:00,
2013-04-05 04:43:00,38.7,22.1,29.83,East,90,0.0,0.0,51,0.02,,,0.05,WeatherDisplay:10.37,2013-04-05 08:43:00,
2013-04-05 04:48:00,38.7,22.1,29.83,East,90,0.0,0.0,51,0.02,CLR,,0.05,WeatherDisplay:10.37,2013-04-05 08:48:00,
2013-04-05 04:53:00,38.7,22.1,29.84,SW,225,0.0,0.0,51,0.02,CLR,,0.05,WeatherDisplay:10.37,2013-04-05 08:53:00,
2013-04-05 04:59:00,38.7,22.1,29.84,SW,225,0.0,0.0,51,0.01,CLR,,0.05,WeatherDisplay:10.37,2013-04-05 08:59:00,
2013-04-05 05:04:00,38.7,22.5,29.84,South,180,0.0,0.0,52,0.01,CLR,,0.05,WeatherDisplay:10.37,2013-04-05 09:04:00,
2013-04-05 05:09:00,38.7,22.5,29.84,South,180,0.0,0.0,52,0.01,CLR,,0.05,WeatherDisplay:10.37,2013-04-05 09:09:00,
2013-04-05 05:14:00,38.5,22.8,29.83,South,180,0.0,0.0,53,0.02,RA,,0.06,WeatherDisplay:10.37,2013-04-05 09:14:00,
2013-04-05 05:19:00,38.5,22.8,29.83,South,180,0.0,0.0,53,0.02,RA,,0.06,WeatherDisplay:10.37,2013-04-05 09:19:00,
2013-04-05 05:24:00,38.5,22.8,29.84,South,180,0.0,0.0,53,0.02,,,0.06,WeatherDisplay:10.37,2013-04-05 09:24:00,
2013-04-05 05:30:00,38.7,23.0,29.83,West,270,0.0,0.0,53,0.02,CLR,,0.06,WeatherDisplay:10.37,2013-04-05 09:30:00,
2013-04-05 05:35:00,38.7,23.0,29.83,NE,45,0.0,0.0,53,0.01,CLR,,0.07,WeatherDisplay:10.37,2013-04-05 09:35:00,
2013-04-05 05:40:00,38.5,22.8,29.83,NNE,31,0.0,0.0,53,0.02,RA,,0.07,WeatherDisplay:10.37,2013-04-05 09:40:00,
2013-04-05 05:45:00,38.7,23.4,29.83,WNW,299,0.0,0.0,54,0.02,,,0.07,WeatherDisplay:10.37,2013-04-05 09:45:00,
2013-04-05 05:50:00,38.7,23.4,29.83,WNW,284,0.0,1.0,54,0.02,CLR,,0.07,WeatherDisplay:10.37,2013-04-05 09:50:00,
2013-04-05 05:56:00,38.8,23.6,29.83,SW,225,0.0,0.0,54,0.04,RA,,0.08,WeatherDisplay:10.37,2013-04-05 09:56:00,
2013-04-05 06:02:00,38.7,23.4,29.82,NE,45,0.0,0.0,54,0.04,,,0.08,WeatherDisplay:10.37,2013-04-05 10:02:00,
2013-04-05 06:07:00,38.5,23.3,29.82,North,0,0.0,0.0,54,0.04,CLR,,0.09,WeatherDisplay:10.37,2013-04-05 10:07:00,
2013-04-05 06:12:00,38.3,23.1,29.82,North,0,0.0,0.0,54,0.05,RA,,0.09,WeatherDisplay:10.37,2013-04-05 10:12:00,
2013-04-05 06:17:00,38.1,22.9,29.82,SE,135,0.0,0.0,54,0.05,RA,,0.11,WeatherDisplay:10.37,2013-04-05 10:17:00,
2013-04-05 06:22:00,38.1,22.9,29.81,SE,135,0.0,0.0,54,0.06,RA,,0.13,WeatherDisplay:10.37,2013-04-05 10:22:00,
2013-04-05 06:27:00,38.1,23.4,29.81,SE,135,0.0,0.0,55,0.07,RA,,0.14,WeatherDisplay:10.37,2013-04-05 10:27:00,
2013-04-05 06:32:00,38.1,23.4,29.81,SE,135,0.0,0.0,55,0.08,RA,,0.14,WeatherDisplay:10.37,2013-04-05 10:32:00,
2013-04-05 06:37:00,37.9,23.2,29.81,NE,45,0.0,0.0,55,0.08,RA,,0.15,WeatherDisplay:10.37,2013-04-05 10:37:00,
2013-04-05 06:42:00,37.9,23.2,29.80,NE,45,0.0,0.0,55,0.09,RA,,0.17,WeatherDisplay:10.37,2013-04-05 10:42:00,
2013-04-05 06:48:00,38.1,23.4,29.80,SE,135,0.0,0.0,55,0.11,RA,,0.18,WeatherDisplay:10.37,2013-04-05 10:48:00,
2013-04-05 06:53:00,38.1,23.8,29.80,NE,45,0.0,0.0,56,0.09,RA,,0.18,WeatherDisplay:10.37,2013-04-05 10:53:00,
2013-04-05 06:58:00,38.1,23.8,29.80,NE,45,0.0,0.0,56,0.11,RA,,0.19,WeatherDisplay:10.37,2013-04-05 10:58:00,
2013-04-05 07:03:00,38.1,23.8,29.81,NE,45,0.0,0.0,56,0.11,RA,,0.19,WeatherDisplay:10.37,2013-04-05 11:03:00,
2013-04-05 07:08:00,38.1,23.8,29.81,South,180,1.2,0.0,56,0.09,CLR,,0.19,WeatherDisplay:10.37,2013-04-05 11:08:00,
2013-04-05 07:13:00,38.1,23.8,29.81,SW,225,0.0,0.0,56,0.11,RA,,0.20,WeatherDisplay:10.37,2013-04-05 11:13:00,
2013-04-05 07:18:00,38.1,24.2,29.80,SW,225,0.0,0.0,57,0.09,RA,,0.20,WeatherDisplay:10.37,2013-04-05 11:18:00,
2013-04-05 07:23:00,38.3,24.4,29.79,NE,45,0.0,0.0,57,0.07,CLR,,0.20,WeatherDisplay:10.37,2013-04-05 11:23:00,
2013-04-05 07:28:00,38.1,24.2,29.78,NE,45,0.0,0.0,57,0.06,CLR,,0.20,WeatherDisplay:10.37,2013-04-05 11:28:00,
2013-04-05 07:33:00,38.1,24.6,29.78,NE,45,0.0,0.0,58,0.06,CLR,,0.20,WeatherDisplay:10.37,2013-04-05 11:33:00,
2013-04-05 07:38:00,38.1,24.6,29.78,NE,45,0.0,0.0,58,0.05,CLR,,0.20,WeatherDisplay:10.37,2013-04-05 11:38:00,
2013-04-05 07:43:00,38.1,24.6,29.78,NE,45,0.0,0.0,58,0.04,CLR,,0.20,WeatherDisplay:10.37,2013-04-05 11:43:00,
2013-04-05 07:48:00,38.1,25.0,29.77,North,0,0.0,0.0,59,0.02,CLR,,0.20,WeatherDisplay:10.37,2013-04-05 11:48:00,
2013-04-05 07:53:00,38.1,25.0,29.77,SE,135,1.2,0.0,59,0.02,CLR,,0.20,WeatherDisplay:10.37,2013-04-05 11:53:00,
2013-04-05 07:58:00,38.1,25.0,29.77,North,0,0.0,0.0,59,0.01,CLR,,0.21,WeatherDisplay:10.37,2013-04-05 11:58:00,
2013-04-05 08:03:00,38.5,25.4,29.77,North,0,0.0,0.0,59,0.02,RA,,0.21,WeatherDisplay:10.37,2013-04-05 12:03:00,
2013-04-05 08:08:00,38.7,25.6,29.78,North,0,0.0,0.0,59,0.02,RA,,0.21,WeatherDisplay:10.37,2013-04-05 12:08:00,
2013-04-05 08:13:00,38.8,25.7,29.78,North,0,0.0,0.0,59,0.01,CLR,,0.21,WeatherDisplay:10.37,2013-04-05 12:13:00,
2013-04-05 08:18:00,39.0,26.3,29.78,NE,45,0.0,0.0,60,0.01,CLR,,0.21,WeatherDisplay:10.37,2013-04-05 12:18:00,
2013-04-05 08:23:00,39.0,26.3,29.77,North,0,0.0,0.0,60,0.01,CLR,,0.21,WeatherDisplay:10.37,2013-04-05 12:23:00,
2013-04-05 08:28:00,39.2,26.5,29.77,North,0,0.0,0.0,60,0.01,CLR,,0.21,WeatherDisplay:10.37,2013-04-05 12:28:00,
2013-04-05 08:33:00,39.2,26.5,29.77,NE,45,0.0,0.0,60,0.01,CLR,,0.21,WeatherDisplay:10.37,2013-04-05 12:33:00,
2013-04-05 08:38:00,39.2,26.5,29.77,North,0,0.0,0.0,60,0.01,CLR,,0.21,WeatherDisplay:10.37,2013-04-05 12:38:00,
2013-04-05 08:43:00,39.2,26.5,29.76,North,0,1.2,0.0,60,0.01,CLR,,0.21,WeatherDisplay:10.37,2013-04-05 12:43:00,
2013-04-05 08:48:00,39.4,27.0,29.75,NE,45,2.3,2.3,61,0.01,CLR,,0.21,WeatherDisplay:10.37,2013-04-05 12:48:00,
2013-04-05 08:53:00,39.2,26.9,29.75,North,0,3.5,3.5,61,0.01,CLR,,0.21,WeatherDisplay:10.37,2013-04-05 12:53:00,
2013-04-05 08:58:00,39.2,26.9,29.75,NE,45,3.5,3.5,61,0.01,CLR,,0.21,WeatherDisplay:10.37,2013-04-05 12:58:00,
2013-04-05 09:03:00,39.4,27.0,29.74,North,0,2.3,2.3,61,0.00,CLR,,0.21,WeatherDisplay:10.37,2013-04-05 13:03:00,
2013-04-05 09:08:00,39.6,27.6,29.73,NE,45,2.3,2.3,62,0.00,CLR,,0.21,WeatherDisplay:10.37,2013-04-05 13:08:00,
2013-04-05 09:13:00,40.1,28.1,29.73,North,0,2.3,2.3,62,0.00,CLR,,0.21,WeatherDisplay:10.37,2013-04-05 13:13:00,
2013-04-05 09:18:00,40.6,29.0,29.73,North,0,3.5,0.0,63,0.00,CLR,,0.21,WeatherDisplay:10.37,2013-04-05 13:18:00,
2013-04-05 09:25:00,41.2,29.5,29.73,NW,315,3.5,0.0,63,0.00,CLR,,0.21,WeatherDisplay:10.37,2013-04-05 13:25:00,
2013-04-05 09:30:00,41.9,30.2,29.73,North,0,3.5,3.5,63,0.00,CLR,,0.21,WeatherDisplay:10.37,2013-04-05 13:30:00,
2013-04-05 09:35:00,42.8,31.1,29.73,NE,45,3.5,3.5,63,0.00,CLR,,0.21,WeatherDisplay:10.37,2013-04-05 13:35:00,
2013-04-05 09:40:00,43.3,31.2,29.73,North,6,1.0,4.0,62,0.00,CLR,,0.21,WeatherDisplay:10.37,2013-04-05 13:40:00,
2013-04-05 09:45:00,43.9,31.3,29.73,NNE,31,1.0,3.0,61,0.00,CLR,,0.21,WeatherDisplay:10.37,2013-04-05 13:45:00,
2013-04-05 09:50:00,44.1,31.1,29.73,NNE,14,1.0,6.0,60,0.00,CLR,,0.21,WeatherDisplay:10.37,2013-04-05 13:50:00,
2013-04-05 09:56:00,43.7,29.5,29.73,North,0,5.8,5.8,57,0.00,CLR,,0.21,WeatherDisplay:10.37,2013-04-05 13:56:00,
2013-04-05 10:01:00,43.7,29.5,29.73,NE,45,3.5,3.5,57,0.00,CLR,,0.21,WeatherDisplay:10.37,2013-04-05 14:01:00,
2013-04-05 10:07:00,43.7,29.5,29.73,North,0,3.5,3.5,57,0.00,CLR,,0.21,WeatherDisplay:10.37,2013-04-05 14:07:00,
2013-04-05 10:12:00,43.5,29.3,29.73,SSE,158,4.6,0.0,57,0.00,CLR,,0.21,WeatherDisplay:10.37,2013-04-05 14:12:00,
2013-04-05 10:17:00,43.7,29.9,29.73,South,180,3.5,3.5,58,0.00,CLR,,0.21,WeatherDisplay:10.37,2013-04-05 14:17:00,
2013-04-05 10:22:00,43.7,29.5,29.73,NW,315,3.5,3.5,57,0.00,CLR,,0.21,WeatherDisplay:10.37,2013-04-05 14:22:00,
2013-04-05 10:28:00,47.7,34.0,29.72,North,0,3.5,0.0,59,0.00,CLR,,0.21,WeatherDisplay:10.37,2013-04-05 14:28:00,
2013-04-05 10:34:00,50.7,32.2,29.71,North,0,3.5,3.5,49,0.00,CLR,,0.21,WeatherDisplay:10.37,2013-04-05 14:34:00,
2013-04-05 10:39:00,51.3,28.9,29.71,NE,45,3.5,3.5,42,0.00,CLR,,0.21,WeatherDisplay:10.37,2013-04-05 14:39:00,
2013-04-05 10:44:00,52.0,25.8,29.71,NE,45,5.8,5.8,36,0.00,CLR,,0.21,WeatherDisplay:10.37,2013-04-05 14:44:00,
2013-04-05 10:50:00,52.7,27.1,29.70,South,180,2.3,0.0,37,0.00,CLR,,0.21,WeatherDisplay:10.37,2013-04-05 14:50:00,
2013-04-05 10:55:00,53.8,25.3,29.70,NE,45,4.6,4.6,33,0.00,CLR,,0.21,WeatherDisplay:10.37,2013-04-05 14:55:00,
2013-04-05 11:00:00,54.7,26.1,29.70,NE,45,4.6,4.6,33,0.00,CLR,,0.21,WeatherDisplay:10.37,2013-04-05 15:00:00,
2013-04-05 11:05:00,54.9,24.0,29.69,North,5,2.0,7.0,30,0.00,CLR,,0.21,WeatherDisplay:10.37,2013-04-05 15:05:00,
2013-04-05 11:10:00,54.9,23.2,29.70,North,3,2.0,6.0,29,0.00,CLR,,0.21,WeatherDisplay:10.37,2013-04-05 15:10:00,
2013-04-05 11:15:00,56.5,22.0,29.70,NE,45,5.8,5.8,26,0.00,CLR,,0.21,WeatherDisplay:10.37,2013-04-05 15:15:00,
2013-04-05 11:22:00,56.3,21.8,29.69,SW,225,3.5,3.5,26,0.00,CLR,,0.21,WeatherDisplay:10.37,2013-04-05 15:22:00,
2013-04-05 11:27:00,57.4,20.8,29.69,NW,315,3.5,3.5,24,0.00,CLR,,0.21,WeatherDisplay:10.37,2013-04-05 15:27:00,
2013-04-05 11:32:00,57.0,21.5,29.68,NE,45,4.6,0.0,25,0.00,CLR,,0.21,WeatherDisplay:10.37,2013-04-05 15:32:00,
2013-04-05 11:37:00,55.6,19.3,29.69,East,90,5.8,5.8,24,0.00,CLR,,0.21,WeatherDisplay:10.37,2013-04-05 15:37:00,
2013-04-05 11:42:00,55.0,19.8,29.69,SE,135,5.8,5.8,25,0.00,CLR,,0.21,WeatherDisplay:10.37,2013-04-05 15:42:00,
2013-04-05 11:47:00,53.6,18.6,29.68,East,90,5.8,5.8,25,0.00,CLR,,0.21,WeatherDisplay:10.37,2013-04-05 15:47:00,
2013-04-05 11:52:00,55.0,21.6,29.68,North,0,5.8,5.8,27,0.00,CLR,,0.21,WeatherDisplay:10.37,2013-04-05 15:52:00,
2013-04-05 11:57:00,56.5,20.1,29.68,East,90,4.6,4.6,24,0.00,CLR,,0.21,WeatherDisplay:10.37,2013-04-05 15:57:00,
2013-04-05 12:02:00,56.7,16.0,29.67,NE,45,3.5,3.5,20,0.00,CLR,,0.21,WeatherDisplay:10.37,2013-04-05 16:02:00,
2013-04-05 12:07:00,57.6,17.9,29.67,North,0,3.5,3.5,21,0.00,CLR,,0.21,WeatherDisplay:10.37,2013-04-05 16:07:00,
2013-04-05 12:13:00,58.1,13.4,29.67,NE,45,3.5,3.5,17,0.00,CLR,,0.21,WeatherDisplay:10.37,2013-04-05 16:13:00,
2013-04-05 12:18:00,57.6,14.3,29.66,East,90,5.8,5.8,18,0.00,CLR,,0.21,WeatherDisplay:10.37,2013-04-05 16:18:00,
2013-04-05 12:23:00,56.5,13.4,29.66,NE,45,5.8,5.8,18,0.00,CLR,,0.21,WeatherDisplay:10.37,2013-04-05 16:23:00,
2013-04-05 12:28:00,56.7,10.9,29.66,NE,45,4.6,4.6,16,0.00,CLR,,0.21,WeatherDisplay:10.37,2013-04-05 16:28:00,
2013-04-05 12:33:00,58.1,9.1,29.65,ENE,68,3.5,3.5,14,0.00,CLR,,0.21,WeatherDisplay:10.37,2013-04-05 16:33:00,
2013-04-05 12:38:00,58.3,3.9,29.65,NE,45,5.8,5.8,11,0.00,CLR,,0.21,WeatherDisplay:10.37,2013-04-05 16:38:00,
2013-04-05 12:44:00,57.7,8.8,29.65,North,0,5.8,5.8,14,0.00,CLR,,0.21,WeatherDisplay:10.37,2013-04-05 16:44:00,
2013-04-05 12:50:00,57.6,1.3,29.65,NE,45,5.8,5.8,10,0.00,CLR,,0.21,WeatherDisplay:10.37,2013-04-05 16:50:00,
2013-04-05 12:55:00,57.5,1.2,29.65,NE,35,1.0,6.0,10,0.00,CLR,,0.21,WeatherDisplay:10.37,2013-04-05 16:55:00,
2013-04-05 13:00:00,57.6,1.3,29.64,NE,45,5.4,5.4,10,0.00,CLR,,0.21,WeatherDisplay:10.37,2013-04-05 17:00:00,
2013-04-05 13:07:00,57.6,1.3,29.64,SE,135,3.5,3.5,10,0.00,CLR,,0.21,WeatherDisplay:10.37,2013-04-05 17:07:00,
2013-04-05 13:13:00,58.1,1.7,29.64,NE,45,5.8,5.8,10,0.00,CLR,,0.21,WeatherDisplay:10.37,2013-04-05 17:13:00,
2013-04-05 13:18:00,58.6,2.1,29.64,West,270,4.6,4.6,10,0.00,CLR,,0.21,WeatherDisplay:10.37,2013-04-05 17:18:00,
2013-04-05 13:23:00,58.3,1.8,29.64,NW,315,4.6,4.6,10,0.00,CLR,,0.21,WeatherDisplay:10.37,2013-04-05 17:23:00,
2013-04-05 13:28:00,57.7,1.4,29.65,NE,45,4.6,4.6,10,0.00,CLR,,0.21,WeatherDisplay:10.37,2013-04-05 17:28:00,
2013-04-05 13:33:00,57.2,1.0,29.65,West,270,3.5,3.5,10,0.00,CLR,,0.21,WeatherDisplay:10.37,2013-04-05 17:33:00,
2013-04-05 13:38:00,56.7,0.6,29.65,SE,135,5.8,5.8,10,0.00,CLR,,0.21,WeatherDisplay:10.37,2013-04-05 17:38:00,
2013-04-05 13:43:00,56.8,0.7,29.64,NE,45,4.6,4.6,10,0.00,CLR,,0.21,WeatherDisplay:10.37,2013-04-05 17:43:00,
2013-04-05 13:48:00,57.6,1.3,29.63,NE,45,5.8,5.8,10,0.00,CLR,,0.21,WeatherDisplay:10.37,2013-04-05 17:48:00,
2013-04-05 13:53:00,57.6,1.3,29.62,NE,45,5.8,5.8,10,0.00,CLR,,0.21,WeatherDisplay:10.37,2013-04-05 17:53:00,
2013-04-05 13:58:00,57.9,1.6,29.62,NE,45,4.6,4.6,10,0.00,CLR,,0.21,WeatherDisplay:10.37,2013-04-05 17:58:00,
2013-04-05 14:03:00,57.7,1.4,29.62,East,90,5.8,5.8,10,0.00,CLR,,0.21,WeatherDisplay:10.37,2013-04-05 18:03:00,
2013-04-05 14:08:00,58.8,2.3,29.61,NE,45,6.0,6.0,10,0.00,CLR,,0.21,WeatherDisplay:10.37,2013-04-05 18:08:00,
2013-04-05 14:13:00,59.2,2.5,29.61,NW,315,3.5,3.5,10,0.00,CLR,,0.21,WeatherDisplay:10.37,2013-04-05 18:13:00,
2013-04-05 14:19:00,59.7,2.9,29.61,SE,135,5.8,5.8,10,0.00,CLR,,0.21,WeatherDisplay:10.37,2013-04-05 18:19:00,
2013-04-05 14:24:00,60.1,3.2,29.60,NE,45,3.5,3.5,10,0.00,CLR,,0.21,WeatherDisplay:10.37,2013-04-05 18:24:00,
2013-04-05 14:30:00,59.5,2.8,29.60,ENE,61,2.0,8.0,10,0.00,CLR,,0.21,WeatherDisplay:10.37,2013-04-05 18:30:00,
2013-04-05 14:35:00,59.2,2.5,29.60,ENE,71,2.0,6.0,10,0.00,CLR,,0.21,WeatherDisplay:10.37,2013-04-05 18:35:00,
2013-04-05 14:40:00,59.5,2.8,29.59,NE,48,2.0,4.0,10,0.00,CLR,,0.21,WeatherDisplay:10.37,2013-04-05 18:40:00,
2013-04-05 14:45:00,59.4,2.7,29.59,NNE,17,1.0,5.0,10,0.00,CLR,,0.21,WeatherDisplay:10.37,2013-04-05 18:45:00,
2013-04-05 14:50:00,60.8,3.8,29.59,ENE,72,1.0,6.0,10,0.00,CLR,,0.21,WeatherDisplay:10.37,2013-04-05 18:50:00,
2013-04-05 14:55:00,61.0,3.9,29.59,NNE,12,2.0,6.0,10,0.00,CLR,,0.21,WeatherDisplay:10.37,2013-04-05 18:55:00,
2013-04-05 15:00:00,60.8,3.8,29.59,NNE,20,2.0,6.0,10,0.00,CLR,,0.21,WeatherDisplay:10.37,2013-04-05 19:00:00,
2013-04-05 15:05:00,59.9,3.1,29.59,NNW,338,4.6,4.6,10,0.00,CLR,,0.21,WeatherDisplay:10.37,2013-04-05 19:05:00,
2013-04-05 15:10:00,59.7,2.9,29.59,East,90,5.8,5.8,10,0.00,CLR,,0.21,WeatherDisplay:10.37,2013-04-05 19:10:00,
2013-04-05 15:16:00,59.7,2.9,29.58,NE,45,4.6,4.6,10,0.00,CLR,,0.21,WeatherDisplay:10.37,2013-04-05 19:16:00,
2013-04-05 15:21:00,60.8,3.8,29.58,SE,135,5.8,5.8,10,0.00,CLR,,0.21,WeatherDisplay:10.37,2013-04-05 19:21:00,
2013-04-05 15:27:00,60.6,3.6,29.58,NE,45,4.6,4.6,10,0.00,CLR,,0.21,WeatherDisplay:10.37,2013-04-05 19:27:00,
2013-04-05 15:32:00,61.0,3.9,29.58,SW,225,4.6,4.6,10,0.00,CLR,,0.21,WeatherDisplay:10.37,2013-04-05 19:32:00,
2013-04-05 15:37:00,60.8,3.8,29.58,West,270,5.8,5.8,10,0.00,CLR,,0.21,WeatherDisplay:10.37,2013-04-05 19:37:00,
2013-04-05 15:42:00,60.8,3.8,29.57,NW,315,5.8,5.8,10,0.00,CLR,,0.21,WeatherDisplay:10.37,2013-04-05 19:42:00,
2013-04-05 15:48:00,60.6,3.6,29.58,West,270,3.5,3.5,10,0.00,CLR,,0.21,WeatherDisplay:10.37,2013-04-05 19:48:00,
2013-04-05 15:53:00,61.0,3.9,29.57,NW,315,6.9,6.9,10,0.00,CLR,,0.21,WeatherDisplay:10.37,2013-04-05 19:53:00,
2013-04-05 15:59:00,60.1,3.2,29.57,NW,315,5.8,5.8,10,0.00,CLR,,0.21,WeatherDisplay:10.37,2013-04-05 19:59:00,
2013-04-05 16:05:00,59.9,3.1,29.58,NNW,333,2.0,7.0,10,0.00,CLR,,0.21,WeatherDisplay:10.37,2013-04-05 20:05:00,
2013-04-05 16:10:00,60.6,3.6,29.57,NW,315,4.6,4.6,10,0.00,CLR,,0.21,WeatherDisplay:10.37,2013-04-05 20:10:00,
2013-04-05 16:15:00,59.9,3.1,29.57,SE,135,5.8,5.8,10,0.00,CLR,,0.21,WeatherDisplay:10.37,2013-04-05 20:15:00,
2013-04-05 16:20:00,59.0,2.4,29.57,WSW,248,5.8,5.8,10,0.00,CLR,,0.21,WeatherDisplay:10.37,2013-04-05 20:20:00,
2013-04-05 16:25:00,58.1,1.7,29.57,North,0,4.6,4.6,10,0.00,CLR,,0.21,WeatherDisplay:10.37,2013-04-05 20:25:00,
2013-04-05 16:30:00,57.4,1.1,29.58,ENE,68,8.1,8.1,10,0.00,CLR,,0.21,WeatherDisplay:10.37,2013-04-05 20:30:00,
2013-04-05 16:35:00,56.8,0.7,29.57,SW,225,5.8,5.8,10,0.00,CLR,,0.21,WeatherDisplay:10.37,2013-04-05 20:35:00,
2013-04-05 16:40:00,56.5,0.4,29.57,SW,225,6.9,6.9,10,0.00,CLR,,0.21,WeatherDisplay:10.37,2013-04-05 20:40:00,
2013-04-05 16:45:00,56.7,0.6,29.58,SSW,204,2.0,7.0,10,0.00,CLR,,0.21,WeatherDisplay:10.37,2013-04-05 20:45:00,
2013-04-05 16:50:00,56.3,0.3,29.59,SW,225,8.1,8.1,10,0.00,CLR,,0.21,WeatherDisplay:10.37,2013-04-05 20:50:00,
2013-04-05 16:55:00,55.6,-0.2,29.59,NW,315,6.9,6.9,10,0.00,CLR,,0.21,WeatherDisplay:10.37,2013-04-05 20:55:00,
2013-04-05 17:00:00,55.2,-0.5,29.59,WSW,245,2.0,7.0,10,0.00,CLR,,0.21,WeatherDisplay:10.37,2013-04-05 21:00:00,
2013-04-05 17:05:00,55.1,-0.6,29.59,SW,222,3.0,7.0,10,0.00,CLR,,0.21,WeatherDisplay:10.37,2013-04-05 21:05:00,
2013-04-05 17:10:00,54.9,-0.8,29.59,South,180,5.8,5.8,10,0.00,CLR,,0.21,WeatherDisplay:10.37,2013-04-05 21:10:00,
2013-04-05 17:16:00,54.1,-1.4,29.60,SW,225,6.0,6.0,10,0.00,CLR,,0.21,WeatherDisplay:10.37,2013-04-05 21:16:00,
2013-04-05 17:21:00,53.8,-1.6,29.60,South,180,9.2,9.2,10,0.00,CLR,,0.21,WeatherDisplay:10.37,2013-04-05 21:21:00,
2013-04-05 17:26:00,53.4,-1.9,29.61,South,180,5.8,5.8,10,0.00,CLR,,0.21,WeatherDisplay:10.37,2013-04-05 21:26:00,
2013-04-05 17:32:00,53.2,-2.1,29.61,South,180,5.8,5.8,10,0.00,CLR,,0.21,WeatherDisplay:10.37,2013-04-05 21:32:00,
2013-04-05 17:37:00,53.4,-1.9,29.62,West,270,5.8,5.8,10,0.00,CLR,,0.21,WeatherDisplay:10.37,2013-04-05 21:37:00,
2013-04-05 17:44:00,52.9,-2.3,29.62,SSW,202,5.8,5.8,10,0.00,CLR,,0.21,WeatherDisplay:10.37,2013-04-05 21:44:00,
2013-04-05 17:49:00,52.3,-2.8,29.62,South,180,6.9,6.9,10,0.00,CLR,,0.21,WeatherDisplay:10.37,2013-04-05 21:49:00,
2013-04-05 17:55:00,52.3,1.1,29.62,SW,222,1.0,8.0,12,0.00,CLR,,0.21,WeatherDisplay:10.37,2013-04-05 21:55:00,
2013-04-05 18:00:00,52.3,6.0,29.63,South,180,4.6,4.6,15,0.00,CLR,,0.21,WeatherDisplay:10.37,2013-04-05 22:00:00,
2013-04-05 18:05:00,52.0,9.7,29.62,NE,45,6.9,6.9,18,0.00,CLR,,0.21,WeatherDisplay:10.37,2013-04-05 22:05:00,
2013-04-05 18:10:00,51.6,10.6,29.62,NE,45,3.5,0.0,19,0.00,CLR,,0.21,WeatherDisplay:10.37,2013-04-05 22:10:00,
2013-04-05 18:15:00,51.4,10.5,29.62,South,180,3.8,3.8,19,0.00,CLR,,0.21,WeatherDisplay:10.37,2013-04-05 22:15:00,
2013-04-05 18:20:00,51.8,9.6,29.63,North,0,3.5,0.0,18,0.00,CLR,,0.21,WeatherDisplay:10.37,2013-04-05 22:20:00,
2013-04-05 18:25:00,52.2,8.6,29.63,SW,225,2.3,0.0,17,0.00,CLR,,0.21,WeatherDisplay:10.37,2013-04-05 22:25:00,
2013-04-05 18:30:00,53.6,-1.8,29.63,NE,45,4.6,4.6,10,0.00,CLR,,0.21,WeatherDisplay:10.37,2013-04-05 22:30:00,
2013-04-05 18:36:00,56.8,0.7,29.63,NE,45,5.8,0.0,10,0.00,CLR,,0.21,WeatherDisplay:10.37,2013-04-05 22:36:00,
2013-04-05 18:42:00,57.9,1.6,29.63,North,0,8.1,8.1,10,0.00,CLR,,0.21,WeatherDisplay:10.37,2013-04-05 22:42:00,
2013-04-05 18:47:00,58.5,2.0,29.64,North,0,5.8,5.8,10,0.00,CLR,,0.21,WeatherDisplay:10.37,2013-04-05 22:47:00,
2013-04-05 18:52:00,58.6,2.1,29.64,North,0,8.1,8.1,10,0.00,CLR,,0.21,WeatherDisplay:10.37,2013-04-05 22:52:00,
2013-04-05 18:57:00,58.5,2.0,29.65,NW,315,5.4,5.4,10,0.00,CLR,,0.21,WeatherDisplay:10.37,2013-04-05 22:57:00,
2013-04-05 19:03:00,58.5,2.0,29.65,NW,315,5.8,5.8,10,0.00,CLR,,0.21,WeatherDisplay:10.37,2013-04-05 23:03:00,
2013-04-05 19:08:00,58.1,1.7,29.65,North,0,3.5,0.0,10,0.00,CLR,,0.21,WeatherDisplay:10.37,2013-04-05 23:08:00,
2013-04-05 19:13:00,57.9,1.6,29.66,South,180,3.5,0.0,10,0.00,CLR,,0.21,WeatherDisplay:10.37,2013-04-05 23:13:00,
2013-04-05 19:18:00,57.6,1.3,29.66,North,0,4.6,4.6,10,0.00,CLR,,0.21,WeatherDisplay:10.37,2013-04-05 23:18:00,
2013-04-05 19:24:00,57.2,1.0,29.67,SW,225,5.8,5.8,10,0.00,CLR,,0.21,WeatherDisplay:10.37,2013-04-05 23:24:00,
2013-04-05 19:29:00,57.0,0.9,29.67,North,0,4.6,4.6,10,0.00,CLR,,0.21,WeatherDisplay:10.37,2013-04-05 23:29:00,
2013-04-05 19:34:00,56.8,0.7,29.67,North,0,8.1,8.1,10,0.00,CLR,,0.21,WeatherDisplay:10.37,2013-04-05 23:34:00,
2013-04-05 19:40:00,56.7,0.6,29.67,NNW,342,1.0,6.0,10,0.00,CLR,,0.21,WeatherDisplay:10.37,2013-04-05 23:40:00,
2013-04-05 19:45:00,56.5,0.4,29.67,North,354,2.0,6.0,10,0.00,CLR,,0.21,WeatherDisplay:10.37,2013-04-05 23:45:00,
2013-04-05 19:50:00,56.1,0.2,29.68,North,0,5.8,5.8,10,0.00,CLR,,0.21,WeatherDisplay:10.37,2013-04-05 23:50:00,
2013-04-05 19:55:00,55.9,0.0,29.68,NE,45,3.5,3.5,10,0.00,CLR,,0.21,WeatherDisplay:10.37,2013-04-05 23:55:00,
2013-04-05 20:00:00,55.6,-0.2,29.68,SW,225,4.6,4.6,10,0.00,CLR,,0.21,WeatherDisplay:10.37,2013-04-06 00:00:00,
2013-04-05 20:05:00,55.4,-0.4,29.69,North,0,3.5,3.5,10,0.00,CLR,,0.21,WeatherDisplay:10.37,2013-04-06 00:05:00,
2013-04-05 20:11:00,54.9,-0.8,29.69,NW,315,2.3,0.0,10,0.00,CLR,,0.21,WeatherDisplay:10.37,2013-04-06 00:11:00,
2013-04-05 20:17:00,54.5,-1.1,29.69,East,90,3.5,3.5,10,0.00,CLR,,0.21,WeatherDisplay:10.37,2013-04-06 00:17:00,
2013-04-05 20:22:00,54.3,-1.2,29.69,West,270,1.2,0.0,10,0.00,CLR,,0.21,WeatherDisplay:10.37,2013-04-06 00:22:00,
2013-04-05 20:27:00,53.8,-1.6,29.69,South,180,1.2,0.0,10,0.00,CLR,,0.21,WeatherDisplay:10.37,2013-04-06 00:27:00,
2013-04-05 20:32:00,53.4,-1.9,29.70,West,270,1.2,0.0,10,0.00,CLR,,0.21,WeatherDisplay:10.37,2013-04-06 00:32:00,
2013-04-05 20:38:00,52.9,-2.3,29.71,North,0,1.2,0.0,10,0.00,CLR,,0.21,WeatherDisplay:10.37,2013-04-06 00:38:00,
2013-04-05 20:43:00,52.7,-2.5,29.71,East,90,0.0,0.0,10,0.00,CLR,,0.21,WeatherDisplay:10.37,2013-04-06 00:43:00,
2013-04-05 20:49:00,52.0,-3.0,29.71,NW,315,1.2,0.0,10,0.00,CLR,,0.21,WeatherDisplay:10.37,2013-04-06 00:49:00,
2013-04-05 20:55:00,51.4,-3.4,29.72,SW,225,0.0,0.0,10,0.00,CLR,,0.21,WeatherDisplay:10.37,2013-04-06 00:55:00,
2013-04-05 21:00:00,51.1,-3.7,29.73,NW,315,2.3,2.3,10,0.00,CLR,,0.21,WeatherDisplay:10.37,2013-04-06 01:00:00,
2013-04-05 21:06:00,51.6,-3.3,29.73,North,0,3.5,3.5,10,0.00,CLR,,0.21,WeatherDisplay:10.37,2013-04-06 01:06:00,
2013-04-05 21:12:00,52.0,-3.0,29.73,North,0,3.5,3.5,10,0.00,CLR,,0.21,WeatherDisplay:10.37,2013-04-06 01:12:00,
2013-04-05 21:18:00,52.2,-2.9,29.74,North,0,3.5,3.5,10,0.00,CLR,,0.21,WeatherDisplay:10.37,2013-04-06 01:18:00,
2013-04-05 21:23:00,52.2,-2.9,29.75,North,0,3.5,3.5,10,0.00,CLR,,0.21,WeatherDisplay:10.37,2013-04-06 01:23:00,
2013-04-05 21:28:00,52.2,-2.9,29.75,SW,225,4.6,4.6,10,0.00,CLR,,0.21,WeatherDisplay:10.37,2013-04-06 01:28:00,
2013-04-05 21:33:00,52.0,-3.0,29.75,North,0,3.5,3.5,10,0.00,CLR,,0.21,WeatherDisplay:10.37,2013-04-06 01:33:00,
2013-04-05 21:38:00,52.0,-3.0,29.76,West,270,5.8,5.8,10,0.00,CLR,,0.21,WeatherDisplay:10.37,2013-04-06 01:38:00,
2013-04-05 21:43:00,52.0,-3.0,29.76,NNE,22,8.1,8.1,10,0.00,CLR,,0.21,WeatherDisplay:10.37,2013-04-06 01:43:00,
2013-04-05 21:48:00,52.2,-2.9,29.77,NE,45,5.8,5.8,10,0.00,CLR,,0.21,WeatherDisplay:10.37,2013-04-06 01:48:00,
2013-04-05 21:53:00,52.0,-3.0,29.77,North,0,8.1,8.1,10,0.00,CLR,,0.21,WeatherDisplay:10.37,2013-04-06 01:53:00,
2013-04-05 21:58:00,51.8,-3.2,29.77,NNE,22,8.1,8.1,10,0.00,CLR,,0.21,WeatherDisplay:10.37,2013-04-06 01:58:00,
2013-04-05 22:03:00,51.6,-3.3,29.77,North,0,4.6,4.6,10,0.00,CLR,,0.21,WeatherDisplay:10.37,2013-04-06 02:03:00,
2013-04-05 22:08:00,51.4,-3.4,29.77,NE,45,5.8,5.8,10,0.00,CLR,,0.21,WeatherDisplay:10.37,2013-04-06 02:08:00,
2013-04-05 22:13:00,51.1,-3.7,29.78,NW,315,3.5,3.5,10,0.00,CLR,,0.21,WeatherDisplay:10.37,2013-04-06 02:13:00,
2013-04-05 22:18:00,50.9,-3.9,29.78,NE,45,8.1,8.1,10,0.00,CLR,,0.21,WeatherDisplay:10.37,2013-04-06 02:18:00,
2013-04-05 22:23:00,50.9,-3.9,29.79,East,90,6.9,6.9,10,0.00,CLR,,0.21,WeatherDisplay:10.37,2013-04-06 02:23:00,
2013-04-05 22:28:00,50.7,-4.0,29.79,North,0,9.2,9.2,10,0.00,CLR,,0.21,WeatherDisplay:10.37,2013-04-06 02:28:00,
2013-04-05 22:33:00,50.4,-4.3,29.79,North,0,8.1,8.1,10,0.00,CLR,,0.21,WeatherDisplay:10.37,2013-04-06 02:33:00,
2013-04-05 22:38:00,50.2,-4.4,29.79,NE,45,5.8,5.8,10,0.00,CLR,,0.21,WeatherDisplay:10.37,2013-04-06 02:38:00,
2013-04-05 22:44:00,49.8,-4.7,29.80,South,180,5.8,5.8,10,0.00,CLR,,0.21,WeatherDisplay:10.37,2013-04-06 02:44:00,
2013-04-05 22:49:00,49.6,-4.8,29.80,NW,315,11.5,11.5,10,0.00,CLR,,0.21,WeatherDisplay:10.37,2013-04-06 02:49:00,
2013-04-05 22:54:00,49.5,-5.0,29.80,NE,45,10.4,10.4,10,0.00,CLR,,0.21,WeatherDisplay:10.37,2013-04-06 02:54:00,
2013-04-05 23:00:00,49.3,-5.1,29.81,NNE,20,3.0,12.0,10,0.00,CLR,,0.21,WeatherDisplay:10.37,2013-04-06 03:00:00,
2013-04-05 23:05:00,49.0,-5.4,29.81,NNE,19,5.0,12.0,10,0.00,CLR,,0.21,WeatherDisplay:10.37,2013-04-06 03:05:00,
2013-04-05 23:10:00,48.6,-5.7,29.81,North,0,8.1,8.1,10,0.00,CLR,,0.21,WeatherDisplay:10.37,2013-04-06 03:10:00,
2013-04-05 23:16:00,48.2,-6.0,29.82,SE,135,8.1,8.1,10,0.00,CLR,,0.21,WeatherDisplay:10.37,2013-04-06 03:16:00,
2013-04-05 23:22:00,47.8,-6.2,29.82,North,0,10.4,10.4,10,0.00,CLR,,0.21,WeatherDisplay:10.37,2013-04-06 03:22:00,
2013-04-05 23:27:00,47.7,-6.4,29.82,NE,45,9.2,9.2,10,0.00,CLR,,0.21,WeatherDisplay:10.37,2013-04-06 03:27:00,
2013-04-05 23:33:00,47.3,-6.7,29.83,NW,315,6.9,6.9,10,0.00,CLR,,0.21,WeatherDisplay:10.37,2013-04-06 03:33:00,
2013-04-05 23:38:00,46.9,-6.9,29.83,NE,45,8.1,8.1,10,0.00,CLR,,0.21,WeatherDisplay:10.37,2013-04-06 03:38:00,
2013-04-05 23:43:00,46.6,-7.2,29.83,North,0,12.7,12.7,10,0.00,CLR,,0.21,WeatherDisplay:10.37,2013-04-06 03:43:00,
2013-04-05 23:48:00,46.4,-7.4,29.84,NW,315,6.9,6.9,10,0.00,CLR,,0.21,WeatherDisplay:10.37,2013-04-06 03:48:00,
2013-04-05 23:53:00,46.2,-7.5,29.84,SE,135,5.8,5.8,10,0.00,CLR,,0.21,WeatherDisplay:10.37,2013-04-06 03:53:00,
2013-04-05 23:58:00,45.9,-7.8,29.84,North,0,8.1,8.1,10,0.00,CLR,,0.21,WeatherDisplay:10.37,2013-04-06 03:58:00,